Station Historical Data
Daily Summary for June 11, 2017 Units:  English    Metric   Both
« Previous Day
Next Day »
Daily Weekly Monthly Yearly Custom
  High: Low: Average:
Temperature: 81.2 °F 70.9 °F 75.5 °F
Dew Point: 63.1 °F 57.1 °F 60.5 °F
Humidity: 68% 50% 60%
Wind Speed: 22.0mph 0.0mph 7.4mph
Wind Gust: 29.0mph - -
Wind- - WSW
Pressure: 30.00 in 29.89 in -
Precipitation: 0.00 in    
Historical Graphs
 
 
Tabular Data for June 11, 2017
Time Temperature Dew Point Pressure Wind Wind Speed Wind Gust Humidity Rainfall Rate (Hourly)
00:04 74.8 °F 61.4 °F 29.90 in SW 4.0 mph 12.0 mph 63% 0.00 in
00:09 74.8 °F 61.4 °F 29.89 in SSW 5.0 mph 12.0 mph 63% 0.00 in
00:14 75.0 °F 61.5 °F 29.90 in SSW 4.0 mph 14.0 mph 63% 0.00 in
00:19 74.8 °F 61.4 °F 29.89 in SW 7.0 mph 10.0 mph 63% 0.00 in
00:24 74.6 °F 61.2 °F 29.89 in WSW 6.0 mph 12.0 mph 63% 0.00 in
00:29 74.6 °F 61.2 °F 29.89 in SW 5.0 mph 12.0 mph 63% 0.00 in
00:34 74.8 °F 61.4 °F 29.90 in SW 5.0 mph 14.0 mph 63% 0.00 in
00:39 74.8 °F 61.4 °F 29.90 in SW 6.0 mph 14.0 mph 63% 0.00 in
00:44 74.7 °F 61.3 °F 29.89 in SW 5.0 mph 13.0 mph 63% 0.00 in
00:49 74.6 °F 61.2 °F 29.89 in SSW 6.0 mph 12.0 mph 63% 0.00 in
00:54 74.5 °F 61.1 °F 29.89 in SSW 3.0 mph 11.0 mph 63% 0.00 in
00:59 74.5 °F 61.1 °F 29.89 in SW 5.0 mph 12.0 mph 63% 0.00 in
01:05 74.1 °F 61.1 °F 29.89 in WSW 6.0 mph 9.0 mph 64% 0.00 in
01:10 74.1 °F 60.7 °F 29.90 in SW 6.0 mph 11.0 mph 63% 0.00 in
01:15 74.2 °F 60.8 °F 29.90 in SW 3.0 mph 11.0 mph 63% 0.00 in
01:20 74.3 °F 60.9 °F 29.90 in SW 5.0 mph 13.0 mph 63% 0.00 in
01:25 74.3 °F 60.9 °F 29.89 in SSW 6.0 mph 13.0 mph 63% 0.00 in
01:30 74.3 °F 60.9 °F 29.89 in SSW 6.0 mph 11.0 mph 63% 0.00 in
01:35 74.3 °F 60.9 °F 29.89 in SSW 5.0 mph 12.0 mph 63% 0.00 in
01:40 74.2 °F 60.8 °F 29.90 in SW 5.0 mph 12.0 mph 63% 0.00 in
01:45 74.2 °F 60.3 °F 29.90 in WSW 13.0 mph 13.0 mph 62% 0.00 in
01:50 74.0 °F 60.2 °F 29.90 in SW 6.0 mph 13.0 mph 62% 0.00 in
01:55 74.0 °F 60.2 °F 29.90 in SW 6.0 mph 13.0 mph 62% 0.00 in
02:00 73.9 °F 60.1 °F 29.90 in WSW 4.0 mph 10.0 mph 62% 0.00 in
02:05 73.9 °F 59.6 °F 29.90 in SW 5.0 mph 14.0 mph 61% 0.00 in
02:10 73.9 °F 59.6 °F 29.90 in SSW 2.0 mph 13.0 mph 61% 0.00 in
02:15 74.0 °F 59.7 °F 29.90 in SSW 3.0 mph 13.0 mph 61% 0.00 in
02:20 73.8 °F 59.5 °F 29.91 in SW 6.0 mph 13.0 mph 61% 0.00 in
02:25 73.8 °F 59.0 °F 29.91 in SW 7.0 mph 14.0 mph 60% 0.00 in
02:30 73.6 °F 58.9 °F 29.91 in SW 6.0 mph 14.0 mph 60% 0.00 in
02:35 73.5 °F 58.8 °F 29.91 in WSW 7.0 mph 14.0 mph 60% 0.00 in
02:40 73.6 °F 58.4 °F 29.91 in SW 6.0 mph 11.0 mph 59% 0.00 in
02:45 73.5 °F 58.3 °F 29.91 in SW 3.0 mph 17.0 mph 59% 0.00 in
02:50 73.3 °F 58.1 °F 29.91 in SW 5.0 mph 17.0 mph 59% 0.00 in
02:55 73.3 °F 57.6 °F 29.91 in SW 5.0 mph 16.0 mph 58% 0.00 in
03:00 73.5 °F 57.8 °F 29.91 in SW 6.0 mph 16.0 mph 58% 0.00 in
03:05 73.4 °F 57.7 °F 29.92 in SW 6.0 mph 14.0 mph 58% 0.00 in
03:10 73.5 °F 57.8 °F 29.92 in South 2.0 mph 16.0 mph 58% 0.00 in
03:15 73.7 °F 57.5 °F 29.92 in SW 5.0 mph 16.0 mph 57% 0.00 in
03:20 73.6 °F 57.4 °F 29.92 in SW 7.0 mph 16.0 mph 57% 0.00 in
03:25 73.4 °F 57.2 °F 29.92 in SSW 6.0 mph 9.0 mph 57% 0.00 in
03:30 73.4 °F 57.2 °F 29.93 in SW 4.0 mph 13.0 mph 57% 0.00 in
03:35 73.5 °F 57.3 °F 29.93 in South 7.0 mph 12.0 mph 57% 0.00 in
03:40 73.5 °F 57.3 °F 29.93 in SW 11.0 mph 13.0 mph 57% 0.00 in
03:45 73.5 °F 57.3 °F 29.93 in SW 8.0 mph 14.0 mph 57% 0.00 in
03:50 73.4 °F 57.2 °F 29.93 in West 4.0 mph 8.0 mph 57% 0.00 in
03:55 73.2 °F 57.1 °F 29.93 in SW 5.0 mph 12.0 mph 57% 0.00 in
04:00 73.1 °F 57.4 °F 29.93 in SW 5.0 mph 12.0 mph 58% 0.00 in
04:05 73.2 °F 57.5 °F 29.94 in SW 6.0 mph 14.0 mph 58% 0.00 in
04:10 73.2 °F 57.5 °F 29.93 in SW 6.0 mph 14.0 mph 58% 0.00 in
04:15 73.3 °F 57.6 °F 29.93 in SW 6.0 mph 20.0 mph 58% 0.00 in
04:20 73.4 °F 57.7 °F 29.93 in WSW 6.0 mph 17.0 mph 58% 0.00 in
04:25 73.3 °F 58.1 °F 29.93 in SW 7.0 mph 17.0 mph 59% 0.00 in
04:30 73.3 °F 58.1 °F 29.93 in WSW 8.0 mph 15.0 mph 59% 0.00 in
04:35 73.3 °F 58.6 °F 29.93 in WSW 3.0 mph 14.0 mph 60% 0.00 in
04:40 73.2 °F 58.5 °F 29.93 in WSW 12.0 mph 16.0 mph 60% 0.00 in
04:45 73.3 °F 58.6 °F 29.93 in SSW 7.0 mph 18.0 mph 60% 0.00 in
04:50 73.4 °F 58.7 °F 29.93 in WNW 13.0 mph 19.0 mph 60% 0.00 in
04:55 73.4 °F 58.7 °F 29.93 in SW 9.0 mph 21.0 mph 60% 0.00 in
05:00 73.4 °F 58.7 °F 29.93 in WSW 8.0 mph 21.0 mph 60% 0.00 in
05:05 73.5 °F 58.8 °F 29.93 in WSW 9.0 mph 19.0 mph 60% 0.00 in
05:10 73.6 °F 58.9 °F 29.93 in WSW 7.0 mph 20.0 mph 60% 0.00 in
05:15 73.5 °F 58.8 °F 29.94 in WSW 7.0 mph 17.0 mph 60% 0.00 in
05:20 73.5 °F 58.8 °F 29.94 in WSW 8.0 mph 18.0 mph 60% 0.00 in
05:25 73.3 °F 58.6 °F 29.94 in SW 8.0 mph 20.0 mph 60% 0.00 in
05:30 73.3 °F 59.0 °F 29.94 in SW 9.0 mph 20.0 mph 61% 0.00 in
05:35 73.2 °F 58.9 °F 29.94 in SW 8.0 mph 17.0 mph 61% 0.00 in
05:40 73.0 °F 58.8 °F 29.94 in SW 7.0 mph 14.0 mph 61% 0.00 in
05:45 72.9 °F 58.7 °F 29.95 in SW 7.0 mph 19.0 mph 61% 0.00 in
05:50 72.9 °F 59.1 °F 29.95 in SW 8.0 mph 19.0 mph 62% 0.00 in
05:55 73.0 °F 59.2 °F 29.95 in SW 8.0 mph 17.0 mph 62% 0.00 in
06:00 73.1 °F 58.8 °F 29.95 in SW 9.0 mph 19.0 mph 61% 0.00 in
06:05 73.1 °F 58.8 °F 29.95 in WSW 8.0 mph 13.0 mph 61% 0.00 in
06:10 73.1 °F 58.8 °F 29.95 in WSW 13.0 mph 18.0 mph 61% 0.00 in
06:15 73.3 °F 59.0 °F 29.96 in WSW 9.0 mph 18.0 mph 61% 0.00 in
06:20 73.4 °F 59.1 °F 29.96 in West 5.0 mph 21.0 mph 61% 0.00 in
06:25 73.5 °F 59.2 °F 29.96 in WSW 5.0 mph 18.0 mph 61% 0.00 in
06:30 73.5 °F 59.2 °F 29.97 in WSW 9.0 mph 19.0 mph 61% 0.00 in
06:35 73.6 °F 59.3 °F 29.96 in WSW 10.0 mph 21.0 mph 61% 0.00 in
06:40 73.6 °F 59.3 °F 29.97 in WSW 10.0 mph 21.0 mph 61% 0.00 in
06:45 73.6 °F 59.3 °F 29.97 in WSW 10.0 mph 19.0 mph 61% 0.00 in
06:50 73.6 °F 59.3 °F 29.97 in SW 9.0 mph 19.0 mph 61% 0.00 in
06:55 73.6 °F 59.3 °F 29.97 in SSW 6.0 mph 25.0 mph 61% 0.00 in
06:59 73.7 °F 59.4 °F 29.97 in WSW 10.0 mph 25.0 mph 61% 0.00 in
07:05 73.8 °F 59.5 °F 29.97 in West 13.0 mph 19.0 mph 61% 0.00 in
07:10 73.9 °F 59.6 °F 29.97 in WSW 10.0 mph 20.0 mph 61% 0.00 in
07:15 74.0 °F 59.7 °F 29.97 in WSW 6.0 mph 17.0 mph 61% 0.00 in
07:20 74.1 °F 59.8 °F 29.97 in WSW 9.0 mph 16.0 mph 61% 0.00 in
07:24 74.2 °F 59.4 °F 29.97 in SW 10.0 mph 25.0 mph 60% 0.00 in
07:30 74.4 °F 59.6 °F 29.98 in WSW 10.0 mph 25.0 mph 60% 0.00 in
07:35 74.4 °F 59.6 °F 29.97 in WSW 10.0 mph 21.0 mph 60% 0.00 in
07:40 74.6 °F 59.8 °F 29.97 in WSW 10.0 mph 22.0 mph 60% 0.00 in
07:45 74.7 °F 59.9 °F 29.97 in SW 9.0 mph 22.0 mph 60% 0.00 in
07:50 74.8 °F 60.0 °F 29.97 in WSW 14.0 mph 17.0 mph 60% 0.00 in
07:55 74.9 °F 60.1 °F 29.97 in WSW 9.0 mph 18.0 mph 60% 0.00 in
07:59 75.0 °F 60.2 °F 29.97 in WSW 8.0 mph 20.0 mph 60% 0.00 in
08:05 75.1 °F 60.3 °F 29.97 in WSW 9.0 mph 20.0 mph 60% 0.00 in
08:10 75.2 °F 59.9 °F 29.97 in WSW 6.0 mph 21.0 mph 59% 0.00 in
08:15 75.3 °F 60.5 °F 29.97 in WSW 13.0 mph 17.0 mph 60% 0.00 in
08:20 75.3 °F 60.0 °F 29.97 in West 13.0 mph 25.0 mph 59% 0.00 in
08:25 75.3 °F 60.5 °F 29.97 in SW 15.0 mph 24.0 mph 60% 0.00 in
08:30 75.4 °F 60.5 °F 29.97 in WSW 10.0 mph 24.0 mph 60% 0.00 in
08:35 75.4 °F 60.1 °F 29.98 in WSW 11.0 mph 22.0 mph 59% 0.00 in
08:40 75.4 °F 60.5 °F 29.98 in WSW 17.0 mph 18.0 mph 60% 0.00 in
08:45 75.5 °F 60.6 °F 29.98 in SSW 12.0 mph 20.0 mph 60% 0.00 in
08:50 75.6 °F 60.7 °F 29.98 in WSW 15.0 mph 23.0 mph 60% 0.00 in
08:54 75.6 °F 60.7 °F 29.98 in WSW 10.0 mph 23.0 mph 60% 0.00 in
09:00 75.8 °F 60.9 °F 29.98 in WSW 10.0 mph 18.0 mph 60% 0.00 in
09:05 75.6 °F 61.2 °F 29.98 in WSW 10.0 mph 18.0 mph 61% 0.00 in
09:10 75.6 °F 60.7 °F 29.98 in WSW 10.0 mph 23.0 mph 60% 0.00 in
09:15 75.7 °F 61.3 °F 29.98 in WSW 10.0 mph 23.0 mph 61% 0.00 in
09:19 75.8 °F 61.4 °F 29.98 in SW 5.0 mph 20.0 mph 61% 0.00 in
09:24 75.7 °F 61.3 °F 29.98 in WSW 7.0 mph 20.0 mph 61% 0.00 in
09:29 76.0 °F 61.6 °F 29.98 in SW 9.0 mph 20.0 mph 61% 0.00 in
09:34 75.7 °F 61.8 °F 29.98 in WSW 9.0 mph 21.0 mph 62% 0.00 in
09:40 76.0 °F 61.6 °F 29.98 in SW 9.0 mph 18.0 mph 61% 0.00 in
09:45 76.2 °F 61.8 °F 29.98 in West 10.0 mph 18.0 mph 61% 0.00 in
09:50 76.4 °F 62.0 °F 29.98 in SW 8.0 mph 23.0 mph 61% 0.00 in
09:55 76.8 °F 61.9 °F 29.98 in SW 14.0 mph 16.0 mph 60% 0.00 in
09:59 76.9 °F 62.0 °F 29.98 in WSW 9.0 mph 20.0 mph 60% 0.00 in
10:05 77.2 °F 61.8 °F 29.98 in WSW 9.0 mph 20.0 mph 59% 0.00 in
10:09 76.9 °F 61.5 °F 29.99 in WSW 10.0 mph 24.0 mph 59% 0.00 in
10:15 77.0 °F 62.0 °F 29.98 in WSW 11.0 mph 24.0 mph 60% 0.00 in
10:20 77.2 °F 61.8 °F 29.98 in WSW 11.0 mph 22.0 mph 59% 0.00 in
10:24 77.1 °F 61.7 °F 29.98 in SW 7.0 mph 21.0 mph 59% 0.00 in
10:29 77.1 °F 61.2 °F 29.98 in WNW 11.0 mph 23.0 mph 58% 0.00 in
10:34 77.4 °F 61.9 °F 29.98 in West 12.0 mph 20.0 mph 59% 0.00 in
10:40 77.5 °F 61.6 °F 29.98 in SSW 7.0 mph 20.0 mph 58% 0.00 in
10:45 77.4 °F 61.9 °F 29.98 in West 5.0 mph 22.0 mph 59% 0.00 in
10:50 77.5 °F 61.6 °F 29.98 in SW 7.0 mph 20.0 mph 58% 0.00 in
10:55 78.4 °F 62.9 °F 29.98 in WSW 7.0 mph 14.0 mph 59% 0.00 in
10:59 78.0 °F 62.0 °F 29.98 in WSW 9.0 mph 21.0 mph 58% 0.00 in
11:04 78.0 °F 62.5 °F 29.98 in WSW 11.0 mph 27.0 mph 59% 0.00 in
11:10 78.2 °F 61.7 °F 29.98 in WSW 11.0 mph 27.0 mph 57% 0.00 in
11:15 78.1 °F 61.6 °F 29.98 in WSW 12.0 mph 23.0 mph 57% 0.00 in
11:20 78.2 °F 61.7 °F 29.98 in WSW 12.0 mph 23.0 mph 57% 0.00 in
11:25 78.1 °F 61.6 °F 29.97 in SW 12.0 mph 25.0 mph 57% 0.00 in
11:29 78.2 °F 62.2 °F 29.97 in WSW 11.0 mph 25.0 mph 58% 0.00 in
11:34 77.8 °F 61.8 °F 29.97 in SW 22.0 mph 26.0 mph 58% 0.00 in
11:39 78.2 °F 61.7 °F 29.97 in SSE 6.0 mph 25.0 mph 57% 0.00 in
11:44 78.3 °F 61.8 °F 29.97 in SW 13.0 mph 25.0 mph 57% 0.00 in
11:49 78.7 °F 62.2 °F 29.98 in WNW 15.0 mph 20.0 mph 57% 0.00 in
11:55 78.6 °F 62.1 °F 29.99 in SW 12.0 mph 25.0 mph 57% 0.00 in
12:00 78.7 °F 62.2 °F 29.98 in SW 12.0 mph 25.0 mph 57% 0.00 in
12:04 79.2 °F 62.7 °F 29.99 in SW 11.0 mph 22.0 mph 57% 0.00 in
12:09 79.1 °F 61.5 °F 29.99 in WSW 10.0 mph 21.0 mph 55% 0.00 in
12:14 78.4 °F 61.9 °F 29.99 in WSW 12.0 mph 22.0 mph 57% 0.00 in
12:20 78.6 °F 61.6 °F 30.00 in WSW 12.0 mph 24.0 mph 56% 0.00 in
12:25 78.6 °F 62.1 °F 30.00 in WNW 8.0 mph 24.0 mph 57% 0.00 in
12:29 78.4 °F 61.9 °F 29.99 in WSW 12.0 mph 24.0 mph 57% 0.00 in
12:34 78.5 °F 62.5 °F 29.99 in WSW 12.0 mph 24.0 mph 58% 0.00 in
12:40 78.1 °F 62.1 °F 29.99 in WSW 12.0 mph 24.0 mph 58% 0.00 in
12:45 78.0 °F 62.0 °F 29.99 in WSW 12.0 mph 23.0 mph 58% 0.00 in
12:49 78.0 °F 62.0 °F 29.99 in West 12.0 mph 24.0 mph 58% 0.00 in
12:54 77.8 °F 61.8 °F 29.99 in West 14.0 mph 25.0 mph 58% 0.00 in
12:59 78.4 °F 62.4 °F 29.99 in WSW 16.0 mph 19.0 mph 58% 0.00 in
13:04 78.6 °F 62.6 °F 30.00 in WSW 10.0 mph 21.0 mph 58% 0.00 in
13:09 79.1 °F 62.1 °F 30.00 in NNE 6.0 mph 21.0 mph 56% 0.00 in
13:15 78.8 °F 61.8 °F 30.00 in West 11.0 mph 29.0 mph 56% 0.00 in
13:20 78.9 °F 62.4 °F 30.00 in SW 14.0 mph 19.0 mph 57% 0.00 in
13:24 78.7 °F 62.2 °F 30.00 in WSW 22.0 mph 25.0 mph 57% 0.00 in
13:29 79.0 °F 62.0 °F 30.00 in WSW 11.0 mph 25.0 mph 56% 0.00 in
13:34 78.6 °F 61.1 °F 30.00 in WSW 11.0 mph 25.0 mph 55% 0.00 in
13:39 78.5 °F 62.0 °F 30.00 in WSW 12.0 mph 24.0 mph 57% 0.00 in
13:45 78.3 °F 61.8 °F 30.00 in WSW 11.0 mph 22.0 mph 57% 0.00 in
13:49 78.0 °F 61.5 °F 30.00 in West 7.0 mph 22.0 mph 57% 0.00 in
13:54 78.5 °F 62.0 °F 29.99 in West 11.0 mph 23.0 mph 57% 0.00 in
13:59 78.7 °F 62.2 °F 29.99 in West 13.0 mph 19.0 mph 57% 0.00 in
14:04 79.0 °F 62.0 °F 29.99 in WSW 11.0 mph 28.0 mph 56% 0.00 in
14:10 79.1 °F 62.6 °F 29.99 in West 8.0 mph 26.0 mph 57% 0.00 in
14:14 79.3 °F 62.7 °F 29.99 in WSW 4.0 mph 28.0 mph 57% 0.00 in
14:19 79.4 °F 62.8 °F 29.99 in West 11.0 mph 28.0 mph 57% 0.00 in
14:24 79.4 °F 61.8 °F 29.99 in WSW 11.0 mph 28.0 mph 55% 0.00 in
14:29 79.8 °F 62.7 °F 29.99 in WSW 11.0 mph 24.0 mph 56% 0.00 in
14:34 80.2 °F 63.1 °F 29.99 in WSW 11.0 mph 24.0 mph 56% 0.00 in
14:39 80.2 °F 62.6 °F 30.00 in WSW 11.0 mph 26.0 mph 55% 0.00 in
14:44 80.5 °F 62.3 °F 30.00 in WSW 11.0 mph 26.0 mph 54% 0.00 in
14:49 80.6 °F 62.9 °F 29.99 in SW 9.0 mph 20.0 mph 55% 0.00 in
14:54 80.5 °F 62.3 °F 29.99 in WSW 11.0 mph 22.0 mph 54% 0.00 in
14:59 80.4 °F 62.2 °F 29.99 in West 15.0 mph 21.0 mph 54% 0.00 in
15:04 79.9 °F 61.8 °F 29.99 in WSW 6.0 mph 26.0 mph 54% 0.00 in
15:09 79.6 °F 61.5 °F 29.99 in West 8.0 mph 24.0 mph 54% 0.00 in
15:15 79.4 °F 61.8 °F 30.00 in SW 6.0 mph 22.0 mph 55% 0.00 in
15:20 79.5 °F 61.9 °F 30.00 in SW 12.0 mph 21.0 mph 55% 0.00 in
15:24 79.0 °F 62.0 °F 30.00 in WSW 12.0 mph 24.0 mph 56% 0.00 in
15:29 78.7 °F 61.7 °F 30.00 in WSW 12.0 mph 24.0 mph 56% 0.00 in
15:34 78.8 °F 62.3 °F 29.99 in WSW 12.0 mph 24.0 mph 57% 0.00 in
15:39 78.8 °F 62.3 °F 29.99 in WSW 11.0 mph 24.0 mph 57% 0.00 in
15:45 78.9 °F 62.4 °F 29.99 in WSW 10.0 mph 19.0 mph 57% 0.00 in
15:50 78.6 °F 61.6 °F 29.99 in SW 10.0 mph 22.0 mph 56% 0.00 in
15:54 78.8 °F 62.3 °F 29.99 in West 8.0 mph 17.0 mph 57% 0.00 in
15:59 78.9 °F 61.9 °F 29.99 in West 9.0 mph 17.0 mph 56% 0.00 in
16:04 79.1 °F 61.5 °F 29.99 in WSW 7.0 mph 15.0 mph 55% 0.00 in
16:09 78.9 °F 61.9 °F 29.99 in WSW 13.0 mph 20.0 mph 56% 0.00 in
16:14 79.1 °F 62.6 °F 29.99 in WSW 8.0 mph 17.0 mph 57% 0.00 in
16:19 78.7 °F 61.7 °F 29.99 in West 10.0 mph 18.0 mph 56% 0.00 in
16:24 78.5 °F 62.0 °F 29.99 in WSW 10.0 mph 18.0 mph 57% 0.00 in
16:29 78.6 °F 62.1 °F 29.99 in WSW 9.0 mph 17.0 mph 57% 0.00 in
16:34 79.0 °F 63.0 °F 29.99 in WSW 8.0 mph 17.0 mph 58% 0.00 in
16:39 79.2 °F 62.7 °F 29.98 in WSW 8.0 mph 17.0 mph 57% 0.00 in
16:44 79.8 °F 62.7 °F 29.98 in WSW 7.0 mph 16.0 mph 56% 0.00 in
16:50 79.6 °F 62.5 °F 29.98 in West 5.0 mph 14.0 mph 56% 0.00 in
16:54 79.3 °F 62.2 °F 29.98 in SW 6.0 mph 22.0 mph 56% 0.00 in
16:59 79.1 °F 61.5 °F 29.98 in SW 8.0 mph 17.0 mph 55% 0.00 in
17:04 79.1 °F 61.5 °F 29.98 in WSW 11.0 mph 17.0 mph 55% 0.00 in
17:09 79.1 °F 61.5 °F 29.97 in SW 7.0 mph 16.0 mph 55% 0.00 in
17:14 79.7 °F 61.6 °F 29.97 in SW 4.0 mph 19.0 mph 54% 0.00 in
17:19 80.4 °F 61.2 °F 29.97 in WSW 6.0 mph 18.0 mph 52% 0.00 in
17:29 81.2 °F 60.8 °F 29.98 in WSW 8.0 mph 17.0 mph 50% 0.00 in
17:35 81.0 °F 60.6 °F 29.97 in WSW 8.0 mph 17.0 mph 50% 0.00 in
17:39 80.9 °F 60.5 °F 29.98 in WSW 8.0 mph 15.0 mph 50% 0.00 in
17:44 80.5 °F 61.3 °F 29.98 in West 18.0 mph 18.0 mph 52% 0.00 in
17:49 79.9 °F 61.2 °F 29.98 in West 7.0 mph 18.0 mph 53% 0.00 in
17:54 79.8 °F 61.1 °F 29.98 in WSW 8.0 mph 18.0 mph 53% 0.00 in
17:59 79.4 °F 61.3 °F 29.98 in WSW 8.0 mph 16.0 mph 54% 0.00 in
18:04 79.3 °F 61.7 °F 29.98 in WSW 8.0 mph 16.0 mph 55% 0.00 in
18:09 79.1 °F 61.5 °F 29.98 in SW 13.0 mph 15.0 mph 55% 0.00 in
18:14 78.6 °F 61.1 °F 29.98 in West 5.0 mph 13.0 mph 55% 0.00 in
18:19 78.4 °F 61.4 °F 29.98 in SW 6.0 mph 16.0 mph 56% 0.00 in
18:24 78.2 °F 61.7 °F 29.98 in WSW 7.0 mph 16.0 mph 57% 0.00 in
18:29 77.8 °F 61.8 °F 29.97 in WSW 7.0 mph 14.0 mph 58% 0.00 in
18:34 77.4 °F 61.0 °F 29.97 in SW 3.0 mph 15.0 mph 57% 0.00 in
18:39 77.1 °F 60.7 °F 29.97 in WSW 8.0 mph 18.0 mph 57% 0.00 in
18:44 77.0 °F 61.1 °F 29.97 in SW 5.0 mph 12.0 mph 58% 0.00 in
18:50 76.7 °F 60.8 °F 29.97 in SW 5.0 mph 15.0 mph 58% 0.00 in
18:54 76.4 °F 61.5 °F 29.97 in WSW 7.0 mph 15.0 mph 60% 0.00 in
18:59 76.1 °F 61.2 °F 29.98 in WSW 6.0 mph 13.0 mph 60% 0.00 in
19:04 75.8 °F 60.9 °F 29.97 in WSW 6.0 mph 12.0 mph 60% 0.00 in
19:09 75.5 °F 61.1 °F 29.97 in WSW 6.0 mph 12.0 mph 61% 0.00 in
19:14 75.4 °F 61.0 °F 29.97 in SW 8.0 mph 12.0 mph 61% 0.00 in
19:19 75.2 °F 60.8 °F 29.97 in WSW 5.0 mph 10.0 mph 61% 0.00 in
19:24 75.0 °F 61.1 °F 29.97 in WSW 6.0 mph 13.0 mph 62% 0.00 in
19:29 74.7 °F 60.8 °F 29.97 in WSW 6.0 mph 13.0 mph 62% 0.00 in
19:34 74.5 °F 60.6 °F 29.97 in WSW 4.0 mph 13.0 mph 62% 0.00 in
19:39 74.2 °F 60.8 °F 29.97 in WSW 5.0 mph 9.0 mph 63% 0.00 in
19:44 74.0 °F 60.6 °F 29.97 in SW 4.0 mph 11.0 mph 63% 0.00 in
19:49 73.9 °F 61.0 °F 29.97 in SW 6.0 mph 12.0 mph 64% 0.00 in
19:54 73.6 °F 61.1 °F 29.97 in SW 4.0 mph 12.0 mph 65% 0.00 in
19:59 73.3 °F 60.8 °F 29.98 in SW 4.0 mph 11.0 mph 65% 0.00 in
20:04 73.2 °F 60.7 °F 29.97 in SW 4.0 mph 11.0 mph 65% 0.00 in
20:09 72.6 °F 60.6 °F 29.97 in SW 4.0 mph 8.0 mph 66% 0.00 in
20:14 72.1 °F 60.5 °F 29.97 in SSW 2.0 mph 7.0 mph 67% 0.00 in
20:19 71.9 °F 60.3 °F 29.98 in SSW 2.0 mph 5.0 mph 67% 0.00 in
20:29 71.4 °F 60.3 °F 29.98 in SW 5.0 mph 7.0 mph 68% 0.00 in
20:34 71.3 °F 60.2 °F 29.97 in SW 4.0 mph 9.0 mph 68% 0.00 in
20:39 71.4 °F 60.3 °F 29.97 in WSW 6.0 mph 7.0 mph 68% 0.00 in
20:44 71.4 °F 60.3 °F 29.97 in WSW 3.0 mph 9.0 mph 68% 0.00 in
20:49 71.6 °F 60.1 °F 29.97 in WSW 3.0 mph 9.0 mph 67% 0.00 in
20:54 71.7 °F 60.2 °F 29.96 in WSW 4.0 mph 9.0 mph 67% 0.00 in
20:59 71.6 °F 60.1 °F 29.96 in SW 3.0 mph 9.0 mph 67% 0.00 in
21:04 71.8 °F 60.2 °F 29.96 in SW 1.0 mph 8.0 mph 67% 0.00 in
21:09 71.7 °F 60.2 °F 29.96 in SW 2.0 mph 8.0 mph 67% 0.00 in
21:14 71.9 °F 59.9 °F 29.96 in SW 2.0 mph 7.0 mph 66% 0.00 in
21:19 71.9 °F 59.9 °F 29.96 in SW 3.0 mph 7.0 mph 66% 0.00 in
21:24 72.0 °F 60.0 °F 29.96 in SW 2.0 mph 6.0 mph 66% 0.00 in
21:29 72.0 °F 60.0 °F 29.96 in WSW 1.0 mph 4.0 mph 66% 0.00 in
21:34 72.0 °F 60.0 °F 29.96 in Calm   3.0 mph 66% 0.00 in
21:39 71.8 °F 59.8 °F 29.96 in WSW 1.0 mph 5.0 mph 66% 0.00 in
21:44 72.0 °F 60.0 °F 29.96 in SW 2.0 mph 6.0 mph 66% 0.00 in
21:49 72.3 °F 59.9 °F 29.96 in Calm   5.0 mph 65% 0.00 in
21:54 72.0 °F 60.0 °F 29.96 in SW 1.0 mph 5.0 mph 66% 0.00 in
21:59 71.6 °F 59.6 °F 29.96 in Calm   3.0 mph 66% 0.00 in
22:04 71.6 °F 59.6 °F 29.96 in Calm     66% 0.00 in
22:09 71.6 °F 59.6 °F 29.96 in Calm     66% 0.00 in
22:14 71.6 °F 59.6 °F 29.96 in Calm     66% 0.00 in
22:19 71.7 °F 59.3 °F 29.96 in SW 2.0 mph 4.0 mph 65% 0.00 in
22:24 72.1 °F 59.2 °F 29.96 in SW 1.0 mph 4.0 mph 64% 0.00 in
22:29 72.6 °F 59.3 °F 29.96 in SW 1.0 mph 4.0 mph 63% 0.00 in
22:34 72.7 °F 59.4 °F 29.96 in SW 1.0 mph 4.0 mph 63% 0.00 in
22:39 72.8 °F 59.5 °F 29.96 in SW 1.0 mph 5.0 mph 63% 0.00 in
22:44 73.2 °F 59.4 °F 29.95 in SSW 2.0 mph 5.0 mph 62% 0.00 in
22:49 73.5 °F 59.7 °F 29.95 in SSW 1.0 mph 5.0 mph 62% 0.00 in
22:54 73.4 °F 59.6 °F 29.95 in SW 2.0 mph 4.0 mph 62% 0.00 in
22:59 73.6 °F 59.8 °F 29.95 in SSW 2.0 mph 4.0 mph 62% 0.00 in
23:04 73.7 °F 59.9 °F 29.96 in SSW 2.0 mph 4.0 mph 62% 0.00 in
23:09 73.6 °F 59.8 °F 29.95 in SSW 2.0 mph 4.0 mph 62% 0.00 in
23:14 73.5 °F 59.7 °F 29.96 in Calm   2.0 mph 62% 0.00 in
23:19 73.0 °F 59.7 °F 29.96 in Calm   2.0 mph 63% 0.00 in
23:24 72.2 °F 59.3 °F 29.95 in Calm     64% 0.00 in
23:29 71.9 °F 59.5 °F 29.95 in Calm     65% 0.00 in
23:34 71.5 °F 59.5 °F 29.95 in Calm     66% 0.00 in
23:39 71.2 °F 59.7 °F 29.95 in Calm     67% 0.00 in
23:44 71.0 °F 59.5 °F 29.95 in Calm     67% 0.00 in
23:49 70.9 °F 59.4 °F 29.95 in Calm     67% 0.00 in
23:54 71.0 °F 59.5 °F 29.95 in Calm   2.0 mph 67% 0.00 in
23:59 71.3 °F 59.8 °F 29.94 in Calm   2.0 mph 67% 0.00 in
Buffalo, New York, USA
Compliments of Weather Underground - 2.5 mb